| time (UTC) | temp C | wind direction | speed KPH | gust KPH | rain 1hr cm | rain 24hr cm | rain mn cm | humidity % | barometer mb |
| 20260505125012 | 17 | 190 | 17.7 | 27.4 | 0.00 | 0.00 | 0.00 | 57 | 1017.0 |
| 20260505124011 | 17 | 190 | 9.7 | 27.4 | 0.00 | 0.00 | 0.00 | 57 | 1017.0 |
| 20260505123018 | 18 | 332 | 17.7 | 29.0 | 0.00 | 0.00 | 0.00 | 56 | 1017.0 |
| 20260505122534 | 18 | 329 | 11.3 | 27.4 | 0.00 | 0.00 | 0.00 | 55 | 1017.1 |
| 20260505122012 | 18 | 343 | 14.5 | 25.7 | 0.00 | 0.00 | 0.00 | 55 | 1017.2 |
| 20260505121525 | 18 | 336 | 16.1 | 25.7 | 0.00 | 0.00 | 0.00 | 54 | 1017.2 |
| 20260505121023 | 18 | 190 | 8.0 | 24.1 | 0.00 | 0.00 | 0.00 | 52 | 1017.2 |
| 20260505120516 | 17 | 190 | 12.9 | 27.4 | 0.00 | 0.00 | 0.00 | 51 | 1017.3 |
| 20260505120021 | 17 | 190 | 11.3 | 33.8 | 0.00 | 0.00 | 0.00 | 53 | 1017.3 |
| 20260505115518 | 17 | 190 | 19.3 | 30.6 | 0.00 | 0.00 | 0.00 | 52 | 1017.3 |
| 20260505115012 | 17 | 272 | 16.1 | 30.6 | 0.00 | 0.00 | 0.00 | 50 | 1017.4 |
| 20260505114019 | 17 | 190 | 9.7 | 24.1 | 0.00 | 0.00 | 0.00 | 54 | 1017.5 |
| 20260505113544 | 17 | 190 | 12.9 | 24.1 | 0.00 | 0.00 | 0.00 | 58 | 1017.5 |
| 20260505113026 | 17 | 306 | 12.9 | 22.5 | 0.00 | 0.00 | 0.00 | 60 | 1017.6 |
| 20260505112515 | 17 | 190 | 12.9 | 25.7 | 0.00 | 0.00 | 0.00 | 58 | 1017.7 |
| 20260505111528 | 16 | 190 | 9.7 | 32.2 | 0.00 | 0.00 | 0.00 | 58 | 1017.8 |
| 20260505111023 | 16 | 329 | 16.1 | 27.4 | 0.00 | 0.00 | 0.00 | 55 | 1017.9 |
| 20260505110526 | 16 | 190 | 17.7 | 27.4 | 0.00 | 0.00 | 0.00 | 58 | 1017.9 |
| 20260505102012 | 15 | 190 | 12.9 | 20.9 | 0.00 | 0.00 | 0.00 | 61 | 1018.0 |
| 20260505101518 | 15 | 190 | 9.7 | 19.3 | 0.00 | 0.00 | 0.00 | 63 | 1018.0 |
| 20260505101015 | 15 | 190 | 11.3 | 24.1 | 0.00 | 0.00 | 0.00 | 64 | 1018.0 |
| 20260505100526 | 15 | 190 | 14.5 | 24.1 | 0.00 | 0.00 | 0.00 | 64 | 1018.0 |
| 20260505100012 | 15 | 190 | 9.7 | 20.9 | 0.00 | 0.00 | 0.00 | 65 | 1018.0 |
| 20260505095527 | 15 | 190 | 8.0 | 20.9 | 0.00 | 0.00 | 0.00 | 66 | 1018.0 |
| 20260505095017 | 15 | 190 | 9.7 | 24.1 | 0.00 | 0.00 | 0.00 | 68 | 1018.1 |
| 20260505094522 | 15 | 190 | 4.8 | 24.1 | 0.00 | 0.00 | 0.00 | 69 | 1018.0 |
| 20260505094027 | 15 | 190 | 8.0 | 24.1 | 0.00 | 0.00 | 0.00 | 68 | 1018.0 |
| 20260505093525 | 15 | 190 | 17.7 | 24.1 | 0.00 | 0.00 | 0.00 | 67 | 1017.9 |
| 20260505093010 | 15 | 190 | 12.9 | 22.5 | 0.00 | 0.00 | 0.00 | 68 | 1017.9 |
| 20260505092523 | 15 | 190 | 16.1 | 22.5 | 0.00 | 0.00 | 0.00 | 67 | 1018.0 |
| 20260505092048 | 15 | 190 | 11.3 | 20.9 | 0.00 | 0.00 | 0.00 | 68 | 1017.9 |
| 20260505091525 | 15 | 190 | 9.7 | 20.9 | 0.00 | 0.00 | 0.00 | 68 | 1017.9 |
| 20260505091031 | 15 | 190 | 8.0 | 24.1 | 0.00 | 0.00 | 0.00 | 69 | 1017.9 |
| 20260505090550 | 15 | 190 | 14.5 | 24.1 | 0.00 | 0.00 | 0.00 | 69 | 1017.9 |
| 20260505090034 | 16 | 312 | 3.2 | 12.9 | 0.00 | 0.00 | 0.00 | 70 | 1017.9 |
| 20260505085512 | 15 | 16 | 3.2 | 16.1 | 0.00 | 0.00 | 0.00 | 71 | 1017.8 |
| 20260505085009 | 15 | 318 | 8.0 | 16.1 | 0.00 | 0.00 | 0.00 | 71 | 1017.9 |
| 20260505084518 | 15 | 345 | 9.7 | 16.1 | 0.00 | 0.00 | 0.00 | 72 | 1017.8 |
| 20260505084015 | 15 | 333 | 4.8 | 17.7 | 0.00 | 0.00 | 0.00 | 73 | 1017.9 |
| 20260505083520 | 15 | 190 | 8.0 | 17.7 | 0.00 | 0.00 | 0.00 | 73 | 1017.9 |
| 20260505083018 | 15 | 190 | 8.0 | 16.1 | 0.00 | 0.00 | 0.00 | 73 | 1017.8 |
| 20260505082542 | 15 | 8 | 4.8 | 16.1 | 0.00 | 0.00 | 0.00 | 73 | 1017.9 |
| 20260505082026 | 15 | 190 | 4.8 | 16.1 | 0.00 | 0.00 | 0.00 | 73 | 1017.9 |
| 20260505081524 | 15 | 323 | 6.4 | 17.7 | 0.00 | 0.00 | 0.00 | 74 | 1017.9 |
| 20260505081031 | 14 | 347 | 8.0 | 17.7 | 0.00 | 0.00 | 0.00 | 75 | 1017.9 |
| 20260505080528 | 14 | 190 | 8.0 | 19.3 | 0.00 | 0.00 | 0.00 | 76 | 1017.8 |
| 20260505080013 | 14 | 190 | 11.3 | 19.3 | 0.00 | 0.00 | 0.00 | 76 | 1017.8 |
| 20260505075509 | 14 | 190 | 4.8 | 12.9 | 0.00 | 0.00 | 0.00 | 77 | 1017.7 |
| 20260505075018 | 14 | 190 | 6.4 | 12.9 | 0.00 | 0.00 | 0.00 | 77 | 1017.7 |
| 20260505074514 | 13 | 190 | 4.8 | 14.5 | 0.00 | 0.00 | 0.00 | 77 | 1017.7 |
| 20260505074012 | 13 | 190 | 6.4 | 11.3 | 0.00 | 0.00 | 0.00 | 77 | 1017.7 |
| 20260505073040 | 13 | 190 | 4.8 | 16.1 | 0.00 | 0.00 | 0.00 | 78 | 1017.7 |
| 20260505072535 | 13 | 313 | 6.4 | 16.1 | 0.00 | 0.00 | 0.00 | 78 | 1017.6 |
| 20260505072025 | 13 | 270 | 6.4 | 20.9 | 0.00 | 0.00 | 0.00 | 78 | 1017.6 |
| 20260505071523 | 13 | 320 | 8.0 | 20.9 | 0.00 | 0.00 | 0.00 | 79 | 1017.5 |
| 20260505071048 | 13 | 303 | 11.3 | 19.3 | 0.00 | 0.00 | 0.00 | 79 | 1017.4 |
| 20260505070519 | 13 | 338 | 9.7 | 17.7 | 0.00 | 0.00 | 0.00 | 79 | 1017.4 |
| 20260505070050 | 13 | 324 | 11.3 | 19.3 | 0.00 | 0.00 | 0.00 | 80 | 1017.4 |
| 20260505065545 | 13 | 309 | 12.9 | 19.3 | 0.00 | 0.00 | 0.00 | 80 | 1017.3 |
| 20260505065022 | 13 | 324 | 14.5 | 20.9 | 0.00 | 0.00 | 0.00 | 80 | 1017.3 |
| 20260505064528 | 13 | 315 | 12.9 | 19.3 | 0.00 | 0.00 | 0.00 | 80 | 1017.3 |
| 20260505064025 | 13 | 334 | 12.9 | 19.3 | 0.00 | 0.00 | 0.00 | 80 | 1017.3 |
| 20260505063523 | 12 | 333 | 12.9 | 19.3 | 0.00 | 0.00 | 0.00 | 80 | 1017.3 |
| 20260505063035 | 12 | 293 | 11.3 | 17.7 | 0.00 | 0.00 | 0.00 | 80 | 1017.3 |
| 20260505062524 | 13 | 335 | 12.9 | 16.1 | 0.00 | 0.00 | 0.00 | 80 | 1017.3 |
| 20260505062009 | 13 | 345 | 8.0 | 14.5 | 0.00 | 0.00 | 0.00 | 80 | 1017.3 |
| 20260505061518 | 13 | 348 | 9.7 | 16.1 | 0.00 | 0.00 | 0.00 | 80 | 1017.2 |
| 20260505061017 | 12 | 311 | 11.3 | 16.1 | 0.00 | 0.00 | 0.00 | 81 | 1017.2 |
| 20260505060522 | 12 | 323 | 11.3 | 16.1 | 0.00 | 0.00 | 0.00 | 81 | 1017.2 |
| 20260505060021 | 12 | 328 | 11.3 | 17.7 | 0.00 | 0.00 | 0.00 | 81 | 1017.1 |
| 20260505055513 | 12 | 328 | 12.9 | 17.7 | 0.00 | 0.00 | 0.00 | 81 | 1017.1 |
| 20260505055011 | 12 | 340 | 9.7 | 16.1 | 0.00 | 0.00 | 0.00 | 81 | 1017.0 |
| 20260505054537 | 12 | 332 | 12.9 | 16.1 | 0.00 | 0.00 | 0.00 | 81 | 1017.0 |
| 20260505054014 | 12 | 318 | 11.3 | 14.5 | 0.00 | 0.00 | 0.00 | 81 | 1017.0 |
| 20260505053512 | 12 | 322 | 9.7 | 14.5 | 0.00 | 0.00 | 0.00 | 81 | 1017.0 |
| 20260505052522 | 12 | 321 | 9.7 | 16.1 | 0.00 | 0.00 | 0.00 | 81 | 1016.9 |
| 20260505052020 | 12 | 319 | 11.3 | 17.7 | 0.00 | 0.00 | 0.00 | 80 | 1016.9 |
| 20260505051544 | 12 | 328 | 9.7 | 16.1 | 0.00 | 0.00 | 0.00 | 80 | 1016.9 |
| 20260505051028 | 12 | 322 | 11.3 | 17.7 | 0.00 | 0.00 | 0.00 | 80 | 1016.9 |
| 20260505050512 | 12 | 309 | 11.3 | 17.7 | 0.00 | 0.00 | 0.00 | 80 | 1016.9 |
| 20260505041035 | 12 | 324 | 11.3 | 16.1 | 0.00 | 0.00 | 0.00 | 80 | 1017.0 |
| 20260505040538 | 12 | 328 | 9.7 | 16.1 | 0.00 | 0.00 | 0.00 | 80 | 1017.1 |
| 20260505040036 | 12 | 307 | 11.3 | 16.1 | 0.00 | 0.00 | 0.00 | 80 | 1017.0 |
| 20260505035522 | 12 | 327 | 12.9 | 16.1 | 0.00 | 0.00 | 0.00 | 80 | 1016.9 |
| 20260505035016 | 12 | 332 | 12.9 | 16.1 | 0.00 | 0.00 | 0.00 | 80 | 1016.9 |
| 20260505034033 | 12 | 343 | 11.3 | 14.5 | 0.00 | 0.00 | 0.00 | 79 | 1017.0 |
| 20260505033521 | 12 | 334 | 11.3 | 14.5 | 0.00 | 0.00 | 0.00 | 79 | 1017.1 |
| 20260505033048 | 12 | 344 | 9.7 | 16.1 | 0.00 | 0.00 | 0.00 | 79 | 1017.1 |
| 20260505032527 | 12 | 344 | 9.7 | 16.1 | 0.00 | 0.00 | 0.00 | 79 | 1017.1 |
| 20260505032013 | 12 | 356 | 11.3 | 16.1 | 0.00 | 0.00 | 0.00 | 78 | 1017.1 |
| 20260505031019 | 12 | 338 | 9.7 | 14.5 | 0.00 | 0.00 | 0.00 | 79 | 1017.1 |
| 20260505030528 | 12 | 344 | 9.7 | 16.1 | 0.00 | 0.00 | 0.00 | 78 | 1017.2 |
| 20260505030035 | 12 | 316 | 9.7 | 16.1 | 0.00 | 0.00 | 0.00 | 78 | 1017.2 |
| 20260505025521 | 12 | 317 | 9.7 | 17.7 | 0.00 | 0.00 | 0.00 | 78 | 1017.2 |
| 20260505025026 | 12 | 325 | 12.9 | 17.7 | 0.00 | 0.00 | 0.00 | 78 | 1017.2 |
| 20260505024524 | 12 | 332 | 12.9 | 17.7 | 0.00 | 0.00 | 0.00 | 78 | 1017.2 |
| 20260505024036 | 12 | 338 | 11.3 | 16.1 | 0.00 | 0.00 | 0.00 | 78 | 1017.2 |
| 20260505023522 | 12 | 313 | 9.7 | 16.1 | 0.00 | 0.00 | 0.00 | 78 | 1017.2 |
| 20260505023028 | 12 | 329 | 11.3 | 16.1 | 0.00 | 0.00 | 0.00 | 78 | 1017.2 |
| 20260505022546 | 12 | 318 | 11.3 | 16.1 | 0.00 | 0.00 | 0.00 | 78 | 1017.3 |
| 20260505022029 | 12 | 328 | 14.5 | 19.3 | 0.00 | 0.00 | 0.00 | 78 | 1017.3 |
| 20260505021526 | 12 | 303 | 12.9 | 19.3 | 0.00 | 0.00 | 0.00 | 78 | 1017.4 |
| 20260505021024 | 12 | 293 | 12.9 | 17.7 | 0.00 | 0.00 | 0.00 | 78 | 1017.5 |
| 20260505020527 | 12 | 324 | 12.9 | 17.7 | 0.00 | 0.00 | 0.00 | 78 | 1017.5 |
| 20260505020052 | 12 | 316 | 11.3 | 16.1 | 0.00 | 0.00 | 0.00 | 78 | 1017.5 |
| 20260505015520 | 12 | 325 | 11.3 | 17.7 | 0.00 | 0.00 | 0.00 | 78 | 1017.6 |
| 20260505015026 | 12 | 304 | 11.3 | 17.7 | 0.00 | 0.00 | 0.00 | 78 | 1017.5 |
| 20260505014531 | 12 | 320 | 11.3 | 14.5 | 0.00 | 0.00 | 0.00 | 78 | 1017.6 |
| 20260505014035 | 12 | 305 | 9.7 | 14.5 | 0.00 | 0.00 | 0.00 | 78 | 1017.7 |
| 20260505013513 | 12 | 316 | 8.0 | 12.9 | 0.00 | 0.00 | 0.00 | 78 | 1017.7 |
| 20260505013011 | 12 | 305 | 9.7 | 12.9 | 0.00 | 0.00 | 0.00 | 78 | 1017.8 |
| 20260505012528 | 12 | 344 | 9.7 | 14.5 | 0.00 | 0.00 | 0.00 | 78 | 1017.8 |
| 20260505012026 | 12 | 303 | 9.7 | 14.5 | 0.00 | 0.00 | 0.00 | 78 | 1017.9 |
| 20260505011524 | 12 | 280 | 8.0 | 14.5 | 0.00 | 0.00 | 0.00 | 78 | 1017.9 |
| 20260505011029 | 12 | 320 | 6.4 | 12.9 | 0.00 | 0.00 | 0.00 | 78 | 1018.0 |
| 20260505010527 | 12 | 333 | 9.7 | 12.9 | 0.00 | 0.00 | 0.00 | 78 | 1018.0 |
| 20260505010032 | 12 | 325 | 8.0 | 11.3 | 0.00 | 0.00 | 0.00 | 78 | 1018.0 |
| 20260505005521 | 13 | 334 | 8.0 | 12.9 | 0.00 | 0.00 | 0.00 | 78 | 1018.0 |
| 20260505004548 | 13 | 328 | 9.7 | 12.9 | 0.00 | 0.00 | 0.00 | 77 | 1018.2 |
| 20260505004032 | 13 | 354 | 6.4 | 11.3 | 0.00 | 0.00 | 0.00 | 77 | 1018.2 |
| 20260505003529 | 13 | 315 | 8.0 | 11.3 | 0.00 | 0.00 | 0.00 | 77 | 1018.2 |
| 20260505003055 | 13 | 310 | 8.0 | 12.9 | 0.00 | 0.00 | 0.00 | 77 | 1018.2 |
| 20260505002531 | 13 | 336 | 9.7 | 12.9 | 0.00 | 0.00 | 0.00 | 77 | 1018.3 |
| 20260505002036 | 13 | 320 | 9.7 | 12.9 | 0.00 | 0.00 | 0.00 | 77 | 1018.3 |
| 20260505001513 | 13 | 318 | 8.0 | 11.3 | 0.00 | 0.00 | 0.00 | 77 | 1018.3 |
| 20260505001012 | 13 | 328 | 6.4 | 11.3 | 0.00 | 0.00 | 0.00 | 77 | 1018.4 |
| 20260505000518 | 13 | 328 | 8.0 | 12.9 | 0.00 | 0.00 | 0.00 | 76 | 1018.5 |
| 20260504235514 | 13 | 316 | 8.0 | 11.3 | 0.00 | 0.00 | 0.00 | 76 | 1018.5 |
| 20260504235020 | 13 | 327 | 8.0 | 12.9 | 0.00 | 0.00 | 0.00 | 76 | 1018.5 |
| 20260504234525 | 13 | 311 | 9.7 | 12.9 | 0.00 | 0.00 | 0.00 | 76 | 1018.5 |
| 20260504234023 | 13 | 332 | 9.7 | 12.9 | 0.00 | 0.00 | 0.00 | 76 | 1018.6 |
| 20260504233528 | 13 | 320 | 8.0 | 12.9 | 0.00 | 0.00 | 0.00 | 76 | 1018.7 |
| 20260504233013 | 13 | 305 | 9.7 | 14.5 | 0.00 | 0.00 | 0.00 | 76 | 1018.6 |
| 20260504232519 | 13 | 315 | 9.7 | 14.5 | 0.00 | 0.00 | 0.00 | 76 | 1018.6 |
| 20260504232044 | 13 | 285 | 8.0 | 12.9 | 0.00 | 0.00 | 0.00 | 76 | 1018.6 |
| 20260504231521 | 13 | 313 | 9.7 | 12.9 | 0.00 | 0.00 | 0.00 | 76 | 1018.6 |
| 20260504231028 | 13 | 308 | 6.4 | 12.9 | 0.00 | 0.00 | 0.00 | 76 | 1018.6 |
| 20260504230526 | 13 | 313 | 8.0 | 12.9 | 0.00 | 0.00 | 0.00 | 76 | 1018.6 |
| 20260504225524 | 13 | 292 | 6.4 | 11.3 | 0.00 | 0.00 | 0.00 | 76 | 1018.7 |
| 20260504224552 | 13 | 320 | 6.4 | 9.7 | 0.00 | 0.00 | 0.00 | 76 | 1018.8 |
| 20260504224036 | 13 | 298 | 6.4 | 11.3 | 0.00 | 0.00 | 0.00 | 76 | 1018.8 |
| 20260504223013 | 13 | 297 | 6.4 | 11.3 | 0.00 | 0.00 | 0.00 | 76 | 1018.8 |
| 20260504222530 | 13 | 316 | 6.4 | 11.3 | 0.00 | 0.00 | 0.00 | 76 | 1018.8 |
| 20260504222029 | 13 | 327 | 6.4 | 14.5 | 0.00 | 0.00 | 0.00 | 76 | 1018.8 |
| 20260504221514 | 13 | 313 | 8.0 | 14.5 | 0.00 | 0.00 | 0.00 | 76 | 1018.7 |
| 20260504221059 | 13 | 313 | 6.4 | 12.9 | 0.00 | 0.00 | 0.00 | 76 | 1018.8 |
| 20260504220521 | 13 | 322 | 6.4 | 12.9 | 0.00 | 0.00 | 0.00 | 76 | 1018.8 |
| 20260504220019 | 13 | 325 | 8.0 | 12.9 | 0.00 | 0.00 | 0.00 | 76 | 1018.8 |
| 20260504215515 | 13 | 326 | 6.4 | 14.5 | 0.00 | 0.00 | 0.00 | 76 | 1018.9 |
| 20260504215031 | 13 | 314 | 8.0 | 0.0 | 0.00 | 0.00 | 0.00 | 76 | 1018.7 |
| 20260504214533 | 13 | 314 | 8.0 | 11.3 | 0.00 | 0.00 | 0.00 | 76 | 1018.9 |
| 20260504214010 | 13 | 335 | 4.8 | 11.3 | 0.00 | 0.00 | 0.00 | 75 | 1018.9 |
| 20260504213535 | 13 | 316 | 6.4 | 11.3 | 0.00 | 0.00 | 0.00 | 75 | 1018.8 |
| 20260504213032 | 13 | 328 | 6.4 | 12.9 | 0.00 | 0.00 | 0.00 | 75 | 1018.8 |
| 20260504212514 | 13 | 320 | 8.0 | 11.3 | 0.00 | 0.00 | 0.00 | 75 | 1018.7 |
| 20260504212012 | 13 | 355 | 4.8 | 14.5 | 0.00 | 0.00 | 0.00 | 75 | 1018.7 |
| 20260504211511 | 13 | 322 | 6.4 | 14.5 | 0.00 | 0.00 | 0.00 | 75 | 1018.7 |
| 20260504211015 | 13 | 348 | 9.7 | 14.5 | 0.00 | 0.00 | 0.00 | 74 | 1018.7 |
| 20260504210528 | 14 | 303 | 6.4 | 12.9 | 0.00 | 0.00 | 0.00 | 74 | 1018.6 |
| 20260504210019 | 14 | 314 | 6.4 | 14.5 | 0.00 | 0.00 | 0.00 | 74 | 1018.6 |
| 20260504205515 | 14 | 315 | 8.0 | 14.5 | 0.00 | 0.00 | 0.00 | 74 | 1018.5 |
| 20260504205039 | 14 | 322 | 8.0 | 12.9 | 0.00 | 0.00 | 0.00 | 74 | 1018.4 |
| 20260504204515 | 14 | 327 | 6.4 | 11.3 | 0.00 | 0.00 | 0.00 | 73 | 1018.3 |
| 20260504204021 | 14 | 310 | 6.4 | 12.9 | 0.00 | 0.00 | 0.00 | 73 | 1018.3 |
| 20260504203538 | 14 | 338 | 8.0 | 12.9 | 0.00 | 0.00 | 0.00 | 73 | 1018.1 |
| 20260504203042 | 14 | 326 | 4.8 | 11.3 | 0.00 | 0.00 | 0.00 | 73 | 1018.1 |
| 20260504202518 | 14 | 320 | 6.4 | 14.5 | 0.00 | 0.00 | 0.00 | 73 | 1018.1 |
| 20260504202024 | 14 | 343 | 8.0 | 16.1 | 0.00 | 0.00 | 0.00 | 73 | 1018.0 |
| 20260504201549 | 14 | 308 | 8.0 | 16.1 | 0.00 | 0.00 | 0.00 | 73 | 1017.9 |
| 20260504201046 | 14 | 357 | 8.0 | 14.5 | 0.00 | 0.00 | 0.00 | 72 | 1017.9 |
| 20260504200017 | 15 | 347 | 11.3 | 16.1 | 0.00 | 0.00 | 0.00 | 72 | 1017.7 |
| 20260504195513 | 15 | 295 | 6.4 | 17.7 | 0.00 | 0.00 | 0.00 | 72 | 1017.6 |
| 20260504195011 | 15 | 326 | 9.7 | 19.3 | 0.00 | 0.00 | 0.00 | 72 | 1017.5 |
| 20260504194020 | 15 | 348 | 12.9 | 19.3 | 0.00 | 0.00 | 0.00 | 71 | 1017.5 |
| 20260504193513 | 15 | 315 | 8.0 | 17.7 | 0.00 | 0.00 | 0.00 | 70 | 1017.5 |
| 20260504193011 | 15 | 302 | 11.3 | 22.5 | 0.00 | 0.00 | 0.00 | 70 | 1017.4 |
| 20260504192528 | 15 | 311 | 14.5 | 22.5 | 0.00 | 0.00 | 0.00 | 69 | 1017.3 |
| 20260504192024 | 15 | 346 | 14.5 | 24.1 | 0.00 | 0.00 | 0.00 | 69 | 1017.4 |
| 20260504191616 | 15 | 342 | 14.5 | 24.1 | 0.00 | 0.00 | 0.00 | 69 | 1017.3 |
| 20260504191055 | 15 | 336 | 16.1 | 22.5 | 0.00 | 0.00 | 0.00 | 69 | 1017.2 |
| 20260504190020 | 15 | 324 | 11.3 | 29.0 | 0.00 | 0.00 | 0.00 | 67 | 1017.2 |
| 20260504185515 | 15 | 328 | 19.3 | 30.6 | 0.00 | 0.00 | 0.00 | 66 | 1017.3 |
| 20260504185020 | 15 | 344 | 14.5 | 25.7 | 0.00 | 0.00 | 0.00 | 66 | 1017.2 |
| 20260504184520 | 16 | 327 | 19.3 | 25.7 | 0.00 | 0.00 | 0.00 | 65 | 1017.1 |
| 20260504184026 | 16 | 343 | 14.5 | 24.1 | 0.00 | 0.00 | 0.00 | 63 | 1017.0 |
| 20260504183034 | 16 | 323 | 19.3 | 33.8 | 0.00 | 0.00 | 0.00 | 63 | 1017.0 |
| 20260504182025 | 16 | 334 | 19.3 | 29.0 | 0.00 | 0.00 | 0.00 | 63 | 1016.9 |
| 20260504181530 | 16 | 351 | 14.5 | 25.7 | 0.00 | 0.00 | 0.00 | 64 | 1016.8 |
| 20260504181028 | 16 | 355 | 19.3 | 29.0 | 0.00 | 0.00 | 0.00 | 64 | 1016.9 |
| 20260504180533 | 16 | 353 | 19.3 | 30.6 | 0.00 | 0.00 | 0.00 | 64 | 1016.9 |
| 20260504175524 | 16 | 332 | 24.1 | 33.8 | 0.00 | 0.00 | 0.00 | 61 | 1016.9 |
| 20260504175029 | 16 | 330 | 17.7 | 33.8 | 0.00 | 0.00 | 0.00 | 60 | 1016.9 |
| 20260504174527 | 16 | 319 | 25.7 | 33.8 | 0.00 | 0.00 | 0.00 | 60 | 1016.9 |
| 20260504174032 | 16 | 321 | 24.1 | 37.0 | 0.00 | 0.00 | 0.00 | 58 | 1016.9 |
| 20260504173556 | 16 | 318 | 20.9 | 37.0 | 0.00 | 0.00 | 0.00 | 59 | 1016.9 |
| 20260504173010 | 16 | 313 | 24.1 | 37.0 | 0.00 | 0.00 | 0.00 | 59 | 1016.9 |
| 20260504172527 | 16 | 333 | 24.1 | 33.8 | 0.00 | 0.00 | 0.00 | 60 | 1016.9 |
| 20260504172020 | 16 | 341 | 19.3 | 30.6 | 0.00 | 0.00 | 0.00 | 62 | 1016.9 |
| 20260504171525 | 17 | 357 | 24.1 | 30.6 | 0.00 | 0.00 | 0.00 | 60 | 1016.9 |
| 20260504171021 | 16 | 8 | 19.3 | 30.6 | 0.00 | 0.00 | 0.00 | 60 | 1016.9 |
| 20260504170526 | 16 | 320 | 17.7 | 29.0 | 0.00 | 0.00 | 0.00 | 59 | 1016.8 |
| 20260504151027 | 17 | 190 | 20.9 | 33.8 | 0.00 | 0.00 | 0.00 | 53 | 1016.8 |
| 20260504150612 | 18 | 190 | 20.9 | 33.8 | 0.00 | 0.00 | 0.00 | 52 | 1016.9 |
| 20260504141022 | 18 | 190 | 19.3 | 33.8 | 0.00 | 0.00 | 0.00 | 54 | 1017.0 |
| 20260504140526 | 18 | 190 | 16.1 | 27.4 | 0.00 | 0.00 | 0.00 | 53 | 1016.9 |
| 20260504130536 | 18 | 190 | 9.7 | 22.5 | 0.00 | 0.00 | 0.00 | 52 | 1016.9 |